StationID,Date,MaxTemp,MinTemp,Precipitation,Snowfall,SnowDepth
"CA0010253P0","1969-08-01",69.98,51.08,0.00,0.00,
"CA0010253P0","1969-08-02",69.98,53.06,0.00,0.00,
"CA0010253P0","1969-08-03",69.08,50.00,0.00,0.00,
"CA0010253P0","1969-08-04",71.96,57.02,0.00,0.00,
"CA0010253P0","1969-08-05",62.06,46.94,5.00,0.00,
"CA0010253P0","1969-08-06",66.02,55.04,0.00,0.00,
"CA0010253P0","1969-08-07",69.98,53.06,0.00,0.00,
"CA0010253P0","1969-08-08",73.04,59.00,0.00,0.00,
"CA0010253P0","1969-08-09",73.94,55.04,0.00,0.00,
"CA0010253P0","1969-08-10",69.98,55.94,0.00,0.00,
"CA0010253P0","1969-08-11",69.98,57.92,61.00,0.00,
"CA0010253P0","1969-08-12",68.00,51.98,3.00,0.00,
"CA0010253P0","1969-08-13",71.06,55.94,0.00,0.00,
"CA0010253P0","1969-08-14",75.02,53.96,0.00,0.00,
"CA0010253P0","1969-08-15",68.00,60.08,0.00,0.00,
"CA0010253P0","1969-08-16",75.92,51.98,0.00,0.00,
"CA0010253P0","1969-08-17",66.92,50.00,0.00,0.00,
"CA0010253P0","1969-08-18",64.04,55.04,8.00,0.00,
"CA0010253P0","1969-08-19",64.94,53.06,48.00,0.00,
"CA0010253P0","1969-08-20",68.00,55.04,0.00,0.00,
"CA0010253P0","1969-08-21",68.00,50.00,0.00,0.00,
"CA0010253P0","1969-08-22",71.96,55.04,0.00,0.00,
"CA0010253P0","1969-08-23",78.08,51.08,0.00,0.00,
"CA0010253P0","1969-08-24",71.06,51.08,36.00,0.00,
"CA0010253P0","1969-08-25",64.94,55.04,0.00,0.00,
"CA0010253P0","1969-08-26",60.08,46.04,36.00,0.00,
"CA0010253P0","1969-08-27",64.04,50.00,183.00,0.00,
"CA0010253P0","1969-08-28",62.96,46.94,0.00,0.00,
"CA0010253P0","1969-08-29",62.96,42.08,0.00,0.00,
"CA0010253P0","1969-08-30",69.98,48.02,0.00,0.00,
"CA0010253P0","1969-08-31",75.02,50.00,0.00,0.00,
"CA0010253P0","1969-09-01",78.98,51.08,0.00,0.00,
"CA0010253P0","1969-09-02",66.92,55.04,25.00,0.00,
"CA0010253P0","1969-09-03",64.04,53.06,15.00,0.00,
"CA0010253P0","1969-09-04",64.94,51.08,0.00,0.00,
"CA0010253P0","1969-09-05",64.04,48.02,0.00,0.00,
"CA0010253P0","1969-09-06",69.08,53.06,0.00,0.00,
"CA0010253P0","1969-09-07",77.00,50.00,0.00,0.00,
"CA0010253P0","1969-09-08",86.00,62.96,0.00,0.00,
"CA0010253P0","1969-09-09",75.92,62.96,0.00,0.00,
"CA0010253P0","1969-09-10",84.02,55.04,0.00,0.00,
"CA0010253P0","1969-09-11",69.98,53.96,0.00,0.00,
"CA0010253P0","1969-09-12",62.96,53.06,3.00,0.00,
"CA0010253P0","1969-09-13",60.98,50.00,5.00,0.00,
"CA0010253P0","1969-09-14",64.04,44.06,0.00,0.00,
"CA0010253P0","1969-09-15",60.98,42.08,13.00,0.00,
"CA0010253P0","1969-09-16",55.94,51.98,218.00,0.00,
"CA0010253P0","1969-09-17",60.08,51.08,84.00,0.00,
"CA0010253P0","1969-09-18",59.00,50.00,36.00,0.00,
"CA0010253P0","1969-09-19",57.02,53.96,48.00,0.00,
"CA0010253P0","1969-09-20",57.92,51.98,25.00,0.00,
"CA0010253P0","1969-09-21",60.08,51.08,191.00,0.00,
"CA0010253P0","1969-09-22",60.08,48.92,152.00,0.00,
"CA0010253P0","1969-09-23",59.00,48.92,41.00,0.00,
"CA0010253P0","1969-09-24",55.04,46.04,69.00,0.00,
"CA0010253P0","1969-09-25",64.04,51.98,0.00,0.00,
"CA0010253P0","1969-09-26",62.06,48.92,23.00,0.00,
"CA0010253P0","1969-09-27",60.98,51.98,0.00,0.00,
"CA0010253P0","1969-09-28",64.04,48.92,0.00,0.00,
"CA0010253P0","1969-09-29",60.08,48.92,25.00,0.00,
"CA0010253P0","1969-09-30",60.98,51.98,36.00,0.00,
"CA0010253P0","1969-10-01",60.98,51.98,51.00,0.00,
"CA0010253P0","1969-10-02",60.98,42.98,0.00,0.00,
"CA0010253P0","1969-10-03",60.08,48.02,0.00,0.00,
"CA0010253P0","1969-10-04",57.02,39.92,0.00,0.00,
"CA0010253P0","1969-10-05",57.02,42.08,0.00,0.00,
"CA0010253P0","1969-10-06",64.94,42.08,0.00,0.00,
"CA0010253P0","1969-10-07",,,,0.00,
"CA0010253P0","1969-10-08",57.02,,,0.00,
"CA0010253P0","1969-10-09",57.02,44.06,64.00,0.00,
"CA0010253P0","1969-10-10",60.98,42.98,0.00,0.00,
"CA0010253P0","1969-10-11",64.04,41.00,0.00,0.00,
"CA0010253P0","1969-10-12",60.98,35.96,0.00,0.00,
"CA0010253P0","1969-10-13",60.08,30.92,0.00,0.00,
"CA0010253P0","1969-10-14",55.04,33.08,0.00,0.00,
"CA0010253P0","1969-10-15",60.08,33.98,0.00,0.00,
"CA0010253P0","1969-10-16",55.04,39.02,0.00,0.00,
"CA0010253P0","1969-10-17",57.92,37.04,0.00,0.00,
"CA0010253P0","1969-10-18",57.02,35.06,0.00,0.00,
"CA0010253P0","1969-10-19",55.04,39.92,41.00,0.00,
"CA0010253P0","1969-10-20",55.04,46.94,48.00,0.00,
"CA0010253P0","1969-10-21",59.00,51.08,0.00,0.00,
"CA0010253P0","1969-10-22",57.02,48.92,0.00,0.00,
"CA0010253P0","1969-10-23",51.98,37.04,10.00,0.00,
"CA0010253P0","1969-10-24",50.00,41.00,114.00,0.00,
"CA0010253P0","1969-10-25",53.96,42.98,0.00,0.00,
"CA0010253P0","1969-10-26",57.92,42.98,132.00,0.00,
"CA0010253P0","1969-10-27",51.98,46.04,10.00,0.00,
"CA0010253P0","1969-10-28",51.08,39.92,61.00,0.00,
"CA0010253P0","1969-10-29",50.00,46.04,20.00,0.00,
"CA0010253P0","1969-10-30",51.98,48.02,18.00,0.00,
"CA0010253P0","1969-10-31",55.04,50.00,0.00,0.00,
"CA0010253P0","1969-11-01",50.00,44.06,0.00,0.00,
"CA0010253P0","1969-11-02",53.06,42.08,0.00,0.00,
"CA0010253P0","1969-11-03",51.98,42.08,132.00,0.00,
"CA0010253P0","1969-11-04",55.04,42.98,152.00,0.00,
"CA0010253P0","1969-11-05",51.98,42.98,13.00,0.00,
"CA0010253P0","1969-11-06",53.06,42.08,0.00,0.00,
"CA0010253P0","1969-11-07",53.06,42.98,20.00,0.00,
"CA0010253P0","1969-11-08",50.00,44.06,0.00,0.00,
"CA0010253P0","1969-11-09",46.04,39.02,0.00,0.00,
"CA0010253P0","1969-11-10",51.08,44.06,0.00,0.00,
"CA0010253P0","1969-11-11",48.02,44.06,10.00,0.00,
"CA0010253P0","1969-11-12",51.98,46.04,0.00,0.00,
"CA0010253P0","1969-11-13",48.92,42.08,0.00,0.00,
"CA0010253P0","1969-11-14",46.04,41.00,0.00,0.00,
"CA0010253P0","1969-11-15",51.08,41.00,0.00,0.00,
"CA0010253P0","1969-11-16",46.04,33.08,0.00,0.00,
"CA0010253P0","1969-11-17",44.06,30.02,0.00,0.00,
"CA0010253P0","1969-11-18",46.94,39.02,0.00,0.00,
"CA0010253P0","1969-11-19",48.92,44.06,66.00,0.00,
"CA0010253P0","1969-11-20",48.92,42.98,53.00,0.00,
"CA0010253P0","1969-11-21",53.06,37.94,0.00,0.00,
"CA0010253P0","1969-11-22",51.08,42.08,155.00,0.00,
"CA0010253P0","1969-11-23",55.04,42.98,0.00,0.00,
"CA0010253P0","1969-11-24",51.08,30.92,5.00,0.00,
"CA0010253P0","1969-11-25",46.04,37.94,0.00,0.00,
"CA0010253P0","1969-11-26",44.96,33.98,0.00,0.00,
"CA0010253P0","1969-11-27",44.96,32.00,0.00,0.00,
"CA0010253P0","1969-11-28",44.96,30.92,0.00,0.00,
"CA0010253P0","1969-11-29",41.00,30.92,0.00,0.00,
"CA0010253P0","1969-11-30",37.94,28.94,0.00,0.00,
"CA0010253P0","1969-12-01",41.00,32.00,0.00,0.00,
"CA0010253P0","1969-12-02",48.92,33.98,0.00,0.00,
"CA0010253P0","1969-12-03",46.04,41.00,28.00,0.00,
"CA0010253P0","1969-12-04",50.00,39.92,0.00,0.00,
"CA0010253P0","1969-12-05",44.96,33.98,0.00,0.00,
"CA0010253P0","1969-12-06",46.04,39.02,0.00,0.00,
"CA0010253P0","1969-12-07",42.08,32.00,74.00,0.00,
"CA0010253P0","1969-12-08",44.06,39.92,36.00,0.00,
"CA0010253P0","1969-12-09",44.06,33.98,30.00,0.00,
"CA0010253P0","1969-12-10",44.96,32.00,279.00,0.00,
"CA0010253P0","1969-12-11",48.92,41.00,290.00,0.00,
"CA0010253P0","1969-12-12",46.04,42.98,142.00,0.00,
"CA0010253P0","1969-12-13",51.98,39.02,244.00,0.00,
"CA0010253P0","1969-12-14",44.96,42.08,18.00,0.00,
"CA0010253P0","1969-12-15",46.04,37.04,0.00,0.00,
"CA0010253P0","1969-12-16",42.08,30.92,79.00,0.00,
"CA0010253P0","1969-12-17",44.06,37.04,130.00,0.00,
"CA0010253P0","1969-12-18",46.94,41.00,0.00,0.00,
"CA0010253P0","1969-12-19",53.96,33.98,56.00,0.00,
"CA0010253P0","1969-12-20",46.94,42.08,173.00,0.00,
"CA0010253P0","1969-12-21",51.98,44.06,51.00,0.00,
"CA0010253P0","1969-12-22",44.96,39.92,262.00,0.00,
"CA0010253P0","1969-12-23",42.98,37.94,20.00,0.00,
"CA0010253P0","1969-12-24",41.00,30.92,0.00,0.00,
"CA0010253P0","1969-12-25",42.08,37.94,38.00,0.00,
"CA0010253P0","1969-12-26",46.04,37.04,0.00,0.00,
"CA0010253P0","1969-12-27",42.08,32.00,33.00,0.00,
"CA0010253P0","1969-12-28",39.92,37.04,10.00,0.00,
"CA0010253P0","1969-12-29",42.98,37.94,0.00,0.00,
"CA0010253P0","1969-12-30",42.08,39.92,0.00,0.00,
"CA0010253P0","1969-12-31",44.96,39.02,0.00,0.00,
"CA0010253P0","1970-01-01",42.98,32.00,8.00,0.00,
"CA0010253P0","1970-01-02",42.98,37.94,10.00,0.00,
"CA0010253P0","1970-01-03",42.98,33.98,0.00,0.00,
"CA0010253P0","1970-01-04",37.94,26.06,0.00,0.00,
"CA0010253P0","1970-01-05",37.94,33.98,15.00,0.00,
"CA0010253P0","1970-01-06",42.08,32.00,0.00,0.00,
"CA0010253P0","1970-01-07",39.02,28.94,0.00,0.00,
"CA0010253P0","1970-01-08",41.00,33.08,140.00,0.00,
"CA0010253P0","1970-01-09",44.06,33.08,0.00,0.00,
"CA0010253P0","1970-01-10",39.92,26.96,3.00,0.00,
"CA0010253P0","1970-01-11",41.00,30.92,0.00,0.00,
"CA0010253P0","1970-01-12",42.98,33.98,0.00,0.00,
"CA0010253P0","1970-01-13",37.94,30.02,152.00,0.00,
"CA0010253P0","1970-01-14",42.08,32.00,0.00,0.00,
"CA0010253P0","1970-01-15",35.96,26.96,0.00,0.00,
"CA0010253P0","1970-01-16",39.02,26.96,0.00,0.00,
"CA0010253P0","1970-01-17",37.04,28.94,112.00,0.00,
"CA0010253P0","1970-01-18",41.00,30.92,201.00,0.00,
"CA0010253P0","1970-01-19",42.98,35.96,43.00,0.00,
"CA0010253P0","1970-01-20",44.96,35.96,165.00,0.00,
"CA0010253P0","1970-01-21",51.98,42.08,18.00,0.00,
"CA0010253P0","1970-01-22",48.02,41.00,221.00,0.00,
"CA0010253P0","1970-01-23",51.08,42.08,69.00,0.00,
"CA0010253P0","1970-01-24",46.04,41.00,8.00,0.00,
"CA0010253P0","1970-01-25",48.02,37.94,0.00,0.00,
"CA0010253P0","1970-01-26",42.08,33.08,25.00,0.00,
"CA0010253P0","1970-01-27",46.04,35.96,0.00,0.00,
"CA0010253P0","1970-01-28",41.00,32.00,0.00,0.00,
"CA0010253P0","1970-01-29",44.06,35.96,0.00,0.00,
"CA0010253P0","1970-01-30",44.06,30.02,145.00,0.00,
"CA0010253P0","1970-01-31",53.96,39.02,0.00,0.00,
"CA0010253P0","1970-02-01",50.00,35.06,5.00,0.00,
"CA0010253P0","1970-02-02",44.96,39.02,36.00,0.00,
"CA0010253P0","1970-02-03",51.98,37.04,0.00,0.00,
"CA0010253P0","1970-02-04",41.00,33.08,0.00,0.00,
"CA0010253P0","1970-02-05",41.00,30.92,28.00,0.00,
"CA0010253P0","1970-02-06",46.94,37.94,30.00,0.00,
"CA0010253P0","1970-02-07",51.08,42.08,0.00,0.00,
"CA0010253P0","1970-02-08",44.96,35.96,0.00,0.00,
"CA0010253P0","1970-02-09",44.06,33.08,0.00,0.00,
"CA0010253P0","1970-02-10",44.96,33.98,0.00,0.00,
"CA0010253P0","1970-02-11",48.92,33.08,0.00,0.00,
"CA0010253P0","1970-02-12",53.06,32.00,51.00,0.00,
"CA0010253P0","1970-02-13",46.94,42.98,64.00,0.00,
"CA0010253P0","1970-02-14",48.92,42.98,66.00,0.00,
"CA0010253P0","1970-02-15",48.02,39.02,185.00,0.00,
"CA0010253P0","1970-02-16",53.06,42.98,109.00,0.00,
"CA0010253P0","1970-02-17",50.00,39.02,0.00,0.00,
"CA0010253P0","1970-02-18",46.04,33.08,0.00,0.00,
"CA0010253P0","1970-02-19",48.92,41.00,0.00,0.00,
"CA0010253P0","1970-02-20",48.92,33.98,0.00,0.00,
"CA0010253P0","1970-02-21",53.06,32.00,0.00,0.00,
"CA0010253P0","1970-02-22",51.08,30.92,0.00,0.00,
"CA0010253P0","1970-02-23",51.08,33.98,0.00,0.00,
"CA0010253P0","1970-02-24",55.04,33.98,0.00,0.00,
"CA0010253P0","1970-02-25",50.00,32.00,0.00,0.00,
"CA0010253P0","1970-02-26",53.96,32.00,0.00,0.00,
"CA0010253P0","1970-02-27",51.98,35.06,0.00,0.00,
"CA0010253P0","1970-02-28",50.00,32.00,0.00,0.00,
"CA0010253P0","1970-03-01",48.02,28.04,0.00,0.00,
"CA0010253P0","1970-03-02",42.98,30.92,0.00,0.00,
"CA0010253P0","1970-03-03",42.08,26.06,0.00,0.00,
"CA0010253P0","1970-03-04",46.04,28.04,0.00,0.00,
"CA0010253P0","1970-03-05",44.96,28.94,30.00,0.00,
"CA0010253P0","1970-03-06",48.02,39.02,254.00,0.00,
"CA0010253P0","1970-03-07",51.08,42.08,0.00,0.00,
"CA0010253P0","1970-03-08",50.00,,0.00,0.00,
"CA0010253P0","1970-03-09",50.00,30.02,0.00,0.00,
"CA0010253P0","1970-03-10",53.06,30.92,0.00,0.00,
"CA0010253P0","1970-03-11",48.92,33.98,28.00,0.00,
"CA0010253P0","1970-03-12",51.98,39.92,267.00,0.00,
"CA0010253P0","1970-03-13",53.96,41.00,178.00,0.00,
"CA0010253P0","1970-03-14",,44.06,0.00,0.00,
"CA0010253P0","1970-03-15",,,5.00,0.00,
"CA0010253P0","1970-03-16",,,5.00,0.00,
"CA0010253P0","1970-03-17",,,0.00,0.00,
"CA0010253P0","1970-03-18",,35.06,0.00,0.00,
"CA0010253P0","1970-03-19",51.98,32.00,0.00,0.00,
"CA0010253P0","1970-03-20",57.02,41.00,0.00,0.00,
"CA0010253P0","1970-03-21",55.94,41.00,0.00,0.00,
"CA0010253P0","1970-03-22",51.98,35.06,0.00,0.00,
"CA0010253P0","1970-03-23",60.08,46.04,0.00,0.00,
"CA0010253P0","1970-03-24",57.02,39.92,0.00,0.00,
"CA0010253P0","1970-03-25",50.00,35.96,0.00,0.00,
"CA0010253P0","1970-03-26",60.98,42.08,0.00,0.00,
"CA0010253P0","1970-03-27",53.96,30.92,0.00,0.00,
"CA0010253P0","1970-03-28",60.08,42.98,0.00,0.00,
"CA0010253P0","1970-03-29",59.00,42.08,0.00,0.00,
"CA0010253P0","1970-03-30",62.96,44.96,0.00,0.00,
"CA0010253P0","1970-03-31",60.98,39.02,0.00,0.00,
"CA0010253P0","1970-04-01",59.00,42.98,3.00,0.00,
"CA0010253P0","1970-04-02",57.92,41.00,0.00,0.00,
"CA0010253P0","1970-04-03",50.00,35.06,0.00,0.00,
"CA0010253P0","1970-04-04",51.98,42.08,38.00,0.00,
"CA0010253P0","1970-04-05",53.06,39.92,66.00,0.00,
"CA0010253P0","1970-04-06",51.98,39.92,0.00,0.00,
"CA0010253P0","1970-04-07",48.02,32.00,20.00,0.00,
"CA0010253P0","1970-04-08",51.08,39.92,254.00,0.00,
"CA0010253P0","1970-04-09",62.06,46.04,0.00,0.00,
"CA0010253P0","1970-04-10",51.08,37.04,0.00,0.00,
"CA0010253P0","1970-04-11",53.06,35.96,0.00,0.00,
"CA0010253P0","1970-04-12",48.92,32.00,0.00,0.00,
"CA0010253P0","1970-04-13",57.92,39.02,0.00,0.00,
"CA0010253P0","1970-04-14",64.04,33.98,0.00,0.00,
"CA0010253P0","1970-04-15",59.00,35.06,0.00,0.00,
"CA0010253P0","1970-04-16",57.92,42.98,0.00,0.00,
"CA0010253P0","1970-04-17",60.08,41.00,5.00,0.00,
"CA0010253P0","1970-04-18",51.98,42.98,61.00,0.00,
"CA0010253P0","1970-04-19",53.06,42.08,10.00,0.00,
"CA0010253P0","1970-04-20",53.96,42.98,0.00,0.00,
"CA0010253P0","1970-04-21",53.96,42.08,0.00,0.00,
"CA0010253P0","1970-04-22",57.02,46.04,5.00,0.00,
"CA0010253P0","1970-04-23",55.94,42.98,38.00,0.00,
"CA0010253P0","1970-04-24",53.06,37.94,0.00,0.00,
"CA0010253P0","1970-04-25",46.94,35.06,117.00,0.00,
"CA0010253P0","1970-04-26",51.98,37.04,0.00,0.00,
"CA0010253P0","1970-04-27",60.08,35.06,0.00,0.00,
"CA0010253P0","1970-04-28",57.02,39.92,86.00,0.00,
"CA0010253P0","1970-04-29",50.00,42.98,0.00,0.00,
"CA0010253P0","1970-04-30",57.02,46.04,0.00,0.00,
"CA0010253P0","1970-05-01",57.92,42.98,0.00,0.00,
"CA0010253P0","1970-05-02",62.06,44.96,0.00,0.00,
"CA0010253P0","1970-05-03",62.96,42.98,0.00,0.00,
"CA0010253P0","1970-05-04",64.04,44.06,0.00,0.00,
"CA0010253P0","1970-05-05",57.02,42.08,0.00,0.00,
"CA0010253P0","1970-05-06",60.08,42.08,0.00,0.00,
"CA0010253P0","1970-05-07",55.04,39.02,38.00,0.00,
"CA0010253P0","1970-05-08",59.00,46.04,0.00,0.00,
"CA0010253P0","1970-05-09",50.00,37.94,23.00,0.00,
"CA0010253P0","1970-05-10",51.98,37.04,0.00,0.00,
"CA0010253P0","1970-05-11",53.06,35.06,0.00,0.00,
"CA0010253P0","1970-05-12",55.04,35.96,0.00,0.00,
"CA0010253P0","1970-05-13",59.00,42.08,0.00,0.00,
"CA0010253P0","1970-05-14",60.98,48.02,0.00,0.00,
"CA0010253P0","1970-05-15",71.96,50.00,0.00,0.00,
"CA0010253P0","1970-05-16",66.92,46.94,0.00,0.00,
"CA0010253P0","1970-05-17",62.96,42.08,0.00,0.00,
"CA0010253P0","1970-05-18",66.02,48.02,0.00,0.00,
"CA0010253P0","1970-05-19",66.92,50.00,0.00,0.00,
"CA0010253P0","1970-05-20",64.04,44.06,0.00,0.00,
"CA0010253P0","1970-05-21",57.02,48.92,33.00,0.00,
"CA0010253P0","1970-05-22",59.00,50.00,5.00,0.00,
"CA0010253P0","1970-05-23",62.06,50.00,0.00,0.00,
"CA0010253P0","1970-05-24",71.06,48.02,0.00,0.00,
"CA0010253P0","1970-05-25",69.08,51.08,0.00,0.00,
"CA0010253P0","1970-05-26",59.00,42.08,0.00,0.00,
"CA0010253P0","1970-05-27",62.06,50.00,36.00,0.00,
"CA0010253P0","1970-05-28",57.92,41.00,30.00,0.00,
"CA0010253P0","1970-05-29",64.04,48.02,25.00,0.00,
"CA0010253P0","1970-05-30",64.04,44.06,0.00,0.00,
"CA0010253P0","1970-05-31",68.00,48.92,0.00,0.00,
"CA0010253P0","1970-06-01",84.92,53.06,0.00,0.00,
"CA0010253P0","1970-06-02",82.94,59.00,0.00,0.00,
"CA0010253P0","1970-06-03",78.98,60.08,13.00,0.00,
"CA0010253P0","1970-06-04",75.92,51.98,0.00,0.00,
"CA0010253P0","1970-06-05",80.06,57.92,0.00,0.00,
"CA0010253P0","1970-06-06",77.00,53.06,0.00,0.00,
"CA0010253P0","1970-06-07",64.94,48.02,0.00,0.00,
"CA0010253P0","1970-06-08",64.94,48.92,0.00,0.00,
"CA0010253P0","1970-06-09",60.08,51.98,10.00,0.00,
"CA0010253P0","1970-06-10",62.06,42.98,18.00,0.00,
"CA0010253P0","1970-06-11",64.04,51.08,0.00,0.00,
"CA0010253P0","1970-06-12",78.08,51.08,0.00,0.00,
"CA0010253P0","1970-06-13",80.06,60.08,0.00,0.00,
"CA0010253P0","1970-06-14",66.92,60.98,0.00,0.00,
"CA0010253P0","1970-06-15",66.02,57.02,0.00,0.00,
"CA0010253P0","1970-06-16",62.06,53.06,0.00,0.00,
"CA0010253P0","1970-06-17",69.98,48.02,0.00,0.00,
"CA0010253P0","1970-06-18",75.92,51.98,0.00,0.00,
"CA0010253P0","1970-06-19",75.02,55.94,0.00,0.00,
"CA0010253P0","1970-06-20",82.94,59.00,0.00,0.00,
"CA0010253P0","1970-06-21",78.08,64.94,0.00,0.00,
"CA0010253P0","1970-06-22",73.94,59.00,0.00,0.00,
"CA0010253P0","1970-06-23",69.98,55.04,0.00,0.00,
"CA0010253P0","1970-06-24",69.08,53.96,0.00,0.00,
"CA0010253P0","1970-06-25",75.92,53.96,0.00,0.00,
"CA0010253P0","1970-06-26",71.96,62.96,64.00,0.00,
"CA0010253P0","1970-06-27",66.92,53.96,0.00,0.00,
"CA0010253P0","1970-06-28",62.06,51.98,36.00,0.00,
"CA0010253P0","1970-06-29",64.94,51.08,0.00,0.00,
"CA0010253P0","1970-06-30",60.98,41.00,0.00,0.00,
"CA0010253P0","1970-07-01",64.04,57.02,0.00,0.00,
"CA0010253P0","1970-07-02",69.08,57.02,0.00,0.00,
"CA0010253P0","1970-07-03",82.94,55.94,0.00,0.00,
"CA0010253P0","1970-07-04",78.98,59.00,0.00,0.00,
"CA0010253P0","1970-07-05",71.06,59.00,0.00,0.00,
"CA0010253P0","1970-07-06",73.04,55.94,0.00,0.00,
"CA0010253P0","1970-07-07",77.00,51.98,0.00,0.00,
"CA0010253P0","1970-07-08",75.92,62.06,0.00,0.00,
"CA0010253P0","1970-07-09",73.94,57.92,0.00,0.00,
"CA0010253P0","1970-07-10",69.08,53.96,0.00,0.00,
"CA0010253P0","1970-07-11",71.96,57.02,0.00,0.00,
"CA0010253P0","1970-07-12",78.98,59.00,0.00,0.00,
"CA0010253P0","1970-07-13",75.92,59.00,0.00,0.00,
"CA0010253P0","1970-07-14",84.02,55.94,0.00,0.00,
"CA0010253P0","1970-07-15",87.08,68.00,0.00,0.00,
"CA0010253P0","1970-07-16",71.96,62.06,0.00,0.00,
"CA0010253P0","1970-07-17",69.08,53.96,0.00,0.00,
"CA0010253P0","1970-07-18",78.98,55.94,0.00,0.00,
"CA0010253P0","1970-07-19",78.98,,0.00,0.00,
"CA0010253P0","1970-07-20",73.94,60.98,0.00,0.00,
"CA0010253P0","1970-07-21",64.94,53.96,0.00,0.00,
"CA0010253P0","1970-07-22",69.98,57.02,0.00,0.00,
"CA0010253P0","1970-07-23",69.08,53.06,0.00,0.00,
"CA0010253P0","1970-07-24",66.92,51.08,51.00,0.00,
"CA0010253P0","1970-07-25",60.98,53.06,20.00,0.00,
"CA0010253P0","1970-07-26",64.04,57.02,0.00,0.00,
"CA0010253P0","1970-07-27",64.94,48.92,41.00,0.00,
"CA0010253P0","1970-07-28",68.00,51.08,53.00,0.00,
"CA0010253P0","1970-07-29",57.02,51.98,56.00,0.00,
"CA0010253P0","1970-07-30",66.92,53.96,0.00,0.00,
"CA0010253P0","1970-07-31",71.96,50.00,0.00,0.00,
"CA0010253P0","1970-08-01",75.02,55.04,0.00,0.00,
"CA0010253P0","1970-08-02",68.00,57.02,0.00,0.00,
"CA0010253P0","1970-08-03",69.08,51.98,0.00,0.00,
"CA0010253P0","1970-08-04",71.06,51.98,0.00,0.00,
"CA0010253P0","1970-08-05",68.00,55.94,0.00,0.00,
"CA0010253P0","1970-08-06",69.98,57.92,8.00,0.00,
"CA0010253P0","1970-08-07",69.98,55.94,13.00,0.00,
"CA0010253P0","1970-08-08",68.00,51.98,0.00,0.00,
"CA0010253P0","1970-08-09",69.98,51.08,0.00,0.00,
"CA0010253P0","1970-08-10",73.04,53.96,0.00,0.00,
"CA0010253P0","1970-08-11",80.96,57.02,0.00,0.00,
"CA0010253P0","1970-08-12",66.02,55.94,109.00,0.00,
"CA0010253P0","1970-08-13",69.98,55.94,0.00,0.00,
"CA0010253P0","1970-08-14",73.04,55.04,0.00,0.00,
"CA0010253P0","1970-08-15",73.94,53.96,0.00,0.00,
"CA0010253P0","1970-08-16",69.08,55.94,0.00,0.00,
"CA0010253P0","1970-08-17",66.02,53.06,0.00,0.00,
"CA0010253P0","1970-08-18",75.02,51.08,0.00,0.00,
"CA0010253P0","1970-08-19",75.92,55.04,0.00,0.00,
"CA0010253P0","1970-08-20",69.08,57.92,0.00,0.00,
"CA0010253P0","1970-08-21",77.00,53.06,0.00,0.00,
"CA0010253P0","1970-08-22",78.08,55.04,0.00,0.00,
"CA0010253P0","1970-08-23",82.04,57.92,5.00,0.00,
"CA0010253P0","1970-08-24",68.00,59.00,0.00,0.00,
"CA0010253P0","1970-08-25",62.06,59.00,0.00,0.00,
"CA0010253P0","1970-08-26",71.06,50.00,0.00,0.00,
"CA0010253P0","1970-08-27",62.96,53.06,25.00,0.00,
"CA0010253P0","1970-08-28",64.94,53.96,0.00,0.00,
"CA0010253P0","1970-08-29",71.96,48.02,0.00,0.00,
"CA0010253P0","1970-08-30",75.92,53.96,0.00,0.00,
"CA0010253P0","1970-08-31",71.96,53.96,0.00,0.00,
"CA0010253P0","1970-09-01",64.04,55.94,0.00,0.00,
"CA0010253P0","1970-09-02",62.96,50.00,56.00,0.00,
"CA0010253P0","1970-09-03",68.00,53.96,15.00,0.00,
"CA0010253P0","1970-09-04",69.98,51.08,13.00,0.00,
"CA0010253P0","1970-09-05",60.08,53.06,13.00,0.00,
"CA0010253P0","1970-09-06",59.00,51.98,76.00,0.00,
"CA0010253P0","1970-09-07",60.08,46.94,0.00,0.00,
"CA0010253P0","1970-09-08",62.96,48.92,0.00,0.00,
"CA0010253P0","1970-09-09",66.02,46.04,0.00,0.00,
"CA0010253P0","1970-09-10",69.98,53.06,0.00,0.00,
"CA0010253P0","1970-09-11",69.08,48.02,0.00,0.00,
"CA0010253P0","1970-09-12",66.02,42.08,0.00,0.00,
"CA0010253P0","1970-09-13",64.04,44.06,0.00,0.00,
"CA0010253P0","1970-09-14",62.96,50.00,0.00,0.00,
"CA0010253P0","1970-09-15",62.06,42.08,0.00,0.00,
"CA0010253P0","1970-09-16",62.06,50.00,127.00,0.00,
"CA0010253P0","1970-09-17",60.08,53.96,3.00,0.00,
"CA0010253P0","1970-09-18",66.02,53.06,36.00,0.00,
"CA0010253P0","1970-09-19",60.08,51.08,23.00,0.00,
"CA0010253P0","1970-09-20",60.98,46.94,0.00,0.00,
"CA0010253P0","1970-09-21",55.94,44.96,43.00,0.00,
"CA0010253P0","1970-09-22",62.06,51.08,0.00,0.00,
"CA0010253P0","1970-09-23",60.98,44.06,0.00,0.00,
"CA0010253P0","1970-09-24",55.04,44.06,0.00,0.00,
"CA0010253P0","1970-09-25",60.08,41.00,0.00,0.00,
"CA0010253P0","1970-09-26",69.98,44.96,0.00,0.00,
"CA0010253P0","1970-09-27",66.92,46.94,0.00,0.00,
"CA0010253P0","1970-09-28",69.08,48.02,0.00,0.00,
"CA0010253P0","1970-09-29",68.00,46.94,0.00,0.00,
"CA0010253P0","1970-09-30",60.98,46.94,0.00,0.00,
"CA0010253P0","1970-10-01",66.92,46.04,0.00,0.00,
"CA0010253P0","1970-10-02",71.06,48.92,0.00,0.00,
"CA0010253P0","1970-10-03",69.08,48.02,0.00,0.00,
"CA0010253P0","1970-10-04",57.92,51.08,0.00,0.00,
"CA0010253P0","1970-10-05",57.02,48.02,0.00,0.00,
"CA0010253P0","1970-10-06",62.06,44.06,0.00,0.00,
"CA0010253P0","1970-10-07",55.04,44.06,36.00,0.00,
"CA0010253P0","1970-10-08",51.98,46.94,71.00,0.00,
"CA0010253P0","1970-10-09",60.08,48.92,0.00,0.00,
"CA0010253P0","1970-10-10",55.04,44.96,0.00,0.00,
"CA0010253P0","1970-10-11",59.00,50.00,0.00,0.00,
"CA0010253P0","1970-10-12",57.02,44.96,0.00,0.00,
"CA0010253P0","1970-10-13",57.92,39.02,0.00,0.00,
"CA0010253P0","1970-10-14",57.92,39.92,0.00,0.00,
"CA0010253P0","1970-10-15",57.02,37.04,0.00,0.00,
"CA0010253P0","1970-10-16",55.04,37.94,0.00,0.00,
"CA0010253P0","1970-10-17",53.06,37.94,203.00,0.00,
"CA0010253P0","1970-10-18",62.96,42.08,3.00,0.00,
"CA0010253P0","1970-10-19",51.08,46.94,152.00,0.00,
"CA0010253P0","1970-10-20",53.06,46.94,10.00,0.00,
"CA0010253P0","1970-10-21",50.00,44.06,56.00,0.00,
"CA0010253P0","1970-10-22",50.00,46.04,66.00,0.00,
"CA0010253P0","1970-10-23",53.96,41.00,99.00,0.00,
"CA0010253P0","1970-10-24",55.04,41.00,0.00,0.00,
"CA0010253P0","1970-10-25",51.08,35.06,0.00,0.00,
"CA0010253P0","1970-10-26",44.06,33.08,0.00,0.00,
"CA0010253P0","1970-10-27",48.02,30.92,0.00,0.00,
"CA0010253P0","1970-10-28",53.96,33.08,0.00,0.00,
"CA0010253P0","1970-10-29",48.02,32.00,0.00,0.00,
"CA0010253P0","1970-10-30",44.96,32.00,0.00,0.00,
"CA0010253P0","1970-10-31",57.92,37.94,0.00,0.00,
"CA0010253P0","1970-11-01",57.02,37.04,0.00,0.00,
"CA0010253P0","1970-11-02",51.08,35.96,0.00,0.00,
"CA0010253P0","1970-11-03",48.92,35.96,0.00,0.00,
"CA0010253P0","1970-11-04",48.92,35.06,13.00,0.00,
"CA0010253P0","1970-11-05",53.96,39.92,89.00,0.00,
"CA0010253P0","1970-11-06",51.08,46.04,94.00,0.00,
"CA0010253P0","1970-11-07",51.98,46.94,84.00,0.00,
"CA0010253P0","1970-11-08",55.04,46.94,130.00,0.00,
"CA0010253P0","1970-11-09",51.08,41.00,0.00,0.00,
"CA0010253P0","1970-11-10",46.94,41.00,206.00,0.00,